Time,TemperatureF,DewpointF,PressureIn,WindDirection,WindDirectionDegrees,WindSpeedMPH,WindSpeedGustMPH,Humidity,HourlyPrecipIn,Conditions,Clouds,dailyrainin,SolarRadiationWatts/m^2,SoftwareType,DateUTC
2013-08-18 00:00:00,67.0,43.0,-100.00,SSW,202,3.0,-999.0,42,-99.99,,,-99.99,0.000000,,2013-08-18 05:00:00,
2013-08-18 00:43:00,67.0,43.0,-100.00,SSW,202,3.0,-999.0,42,-99.99,,,-99.99,0.000000,,2013-08-18 05:43:00,
2013-08-18 00:52:00,67.0,43.0,-100.00,SSW,202,3.0,-999.0,42,-99.99,,,-99.99,0.000000,,2013-08-18 05:52:00,
2013-08-18 02:00:00,63.0,43.0,-100.00,SW,225,1.0,-999.0,47,-99.99,,,-99.99,0.000000,,2013-08-18 07:00:00,
2013-08-18 02:42:00,63.0,43.0,-100.00,SW,225,1.0,-999.0,47,-99.99,,,-99.99,0.000000,,2013-08-18 07:42:00,
2013-08-18 02:52:00,63.0,43.0,-100.00,SW,225,1.0,-999.0,47,-99.99,,,-99.99,0.000000,,2013-08-18 07:52:00,
2013-08-18 03:00:00,60.0,46.0,-100.00,SW,225,1.0,-999.0,60,-99.99,,,-99.99,0.000000,,2013-08-18 08:00:00,
2013-08-18 03:42:00,60.0,46.0,-100.00,SW,225,1.0,-999.0,60,-99.99,,,-99.99,0.000000,,2013-08-18 08:42:00,
2013-08-18 03:52:00,60.0,46.0,-100.00,SW,225,1.0,-999.0,60,-99.99,,,-99.99,0.000000,,2013-08-18 08:52:00,
2013-08-18 04:00:00,59.0,49.0,-100.00,West,270,1.0,-999.0,69,-99.99,,,-99.99,0.000000,,2013-08-18 09:00:00,
2013-08-18 04:43:00,59.0,49.0,-100.00,West,270,1.0,-999.0,69,-99.99,,,-99.99,0.000000,,2013-08-18 09:43:00,
2013-08-18 04:53:00,59.0,49.0,-100.00,West,270,1.0,-999.0,69,-99.99,,,-99.99,0.000000,,2013-08-18 09:53:00,
2013-08-18 05:00:00,51.0,47.0,-100.00,West,270,0.0,-999.0,87,-99.99,,,-99.99,0.000000,,2013-08-18 10:00:00,
2013-08-18 05:43:00,51.0,47.0,-100.00,West,270,0.0,-999.0,87,-99.99,,,-99.99,0.000000,,2013-08-18 10:43:00,
2013-08-18 05:52:00,51.0,47.0,-100.00,West,270,0.0,-999.0,87,-99.99,,,-99.99,0.000000,,2013-08-18 10:52:00,
2013-08-18 06:00:00,50.0,48.0,-100.00,SW,225,0.0,-999.0,93,-99.99,,,-99.99,1.160000,,2013-08-18 11:00:00,
2013-08-18 06:42:00,50.0,48.0,-100.00,SW,225,0.0,-999.0,93,-99.99,,,-99.99,1.160000,,2013-08-18 11:42:00,
2013-08-18 06:52:00,50.0,48.0,-100.00,SW,225,0.0,-999.0,93,-99.99,,,-99.99,1.160000,,2013-08-18 11:52:00,
2013-08-18 07:00:00,51.0,50.0,-100.00,South,180,0.0,-999.0,94,-99.99,,,-99.99,34.799999,,2013-08-18 12:00:00,
2013-08-18 07:42:00,51.0,50.0,-100.00,South,180,0.0,-999.0,94,-99.99,,,-99.99,34.799999,,2013-08-18 12:42:00,
2013-08-18 07:52:00,51.0,50.0,-100.00,South,180,0.0,-999.0,94,-99.99,,,-99.99,34.799999,,2013-08-18 12:52:00,
2013-08-18 08:00:00,62.0,56.0,-100.00,South,180,2.0,-999.0,82,-99.99,,,-99.99,214.600006,,2013-08-18 13:00:00,
2013-08-18 08:42:00,62.0,56.0,-100.00,South,180,2.0,-999.0,82,-99.99,,,-99.99,214.600006,,2013-08-18 13:42:00,
2013-08-18 08:52:00,62.0,56.0,-100.00,South,180,2.0,-999.0,82,-99.99,,,-99.99,214.600006,,2013-08-18 13:52:00,
2013-08-18 09:00:00,69.0,57.0,-100.00,SW,225,2.0,-999.0,64,-99.99,,,-99.99,380.480011,,2013-08-18 14:00:00,
2013-08-18 09:42:00,69.0,57.0,-100.00,SW,225,2.0,-999.0,64,-99.99,,,-99.99,380.480011,,2013-08-18 14:42:00,
2013-08-18 09:53:00,69.0,57.0,-100.00,SW,225,2.0,-999.0,64,-99.99,,,-99.99,380.480011,,2013-08-18 14:53:00,
2013-08-18 10:00:00,72.0,57.0,-100.00,SW,225,2.0,-999.0,59,-99.99,,,-99.99,547.520020,,2013-08-18 15:00:00,
2013-08-18 10:43:00,72.0,57.0,-100.00,SW,225,2.0,-999.0,59,-99.99,,,-99.99,547.520020,,2013-08-18 15:43:00,
2013-08-18 10:54:00,72.0,57.0,-100.00,SW,225,2.0,-999.0,59,-99.99,,,-99.99,547.520020,,2013-08-18 15:54:00,
2013-08-18 11:00:00,75.0,58.0,-100.00,WSW,247,2.0,-999.0,56,-99.99,,,-99.99,690.200012,,2013-08-18 16:00:00,
2013-08-18 11:42:00,75.0,58.0,-100.00,WSW,247,2.0,-999.0,56,-99.99,,,-99.99,690.200012,,2013-08-18 16:42:00,
2013-08-18 11:52:00,75.0,58.0,-100.00,WSW,247,2.0,-999.0,56,-99.99,,,-99.99,690.200012,,2013-08-18 16:52:00,
2013-08-18 12:00:00,76.0,61.0,-100.00,NW,315,2.0,-999.0,58,-99.99,,,-99.99,792.280029,,2013-08-18 17:00:00,
2013-08-18 12:43:00,76.0,61.0,-100.00,NW,315,2.0,-999.0,58,-99.99,,,-99.99,792.280029,,2013-08-18 17:43:00,
2013-08-18 12:52:00,76.0,61.0,-100.00,NW,315,2.0,-999.0,58,-99.99,,,-99.99,792.280029,,2013-08-18 17:52:00,
2013-08-18 13:00:00,77.0,60.0,-100.00,NW,315,3.0,-999.0,55,-99.99,,,-99.99,838.679993,,2013-08-18 18:00:00,
2013-08-18 13:42:00,77.0,60.0,-100.00,NW,315,3.0,-999.0,55,-99.99,,,-99.99,838.679993,,2013-08-18 18:42:00,
2013-08-18 13:52:00,77.0,60.0,-100.00,NW,315,3.0,-999.0,55,-99.99,,,-99.99,838.679993,,2013-08-18 18:52:00,
2013-08-18 14:00:00,79.0,59.0,-100.00,West,270,2.0,-999.0,51,-99.99,,,-99.99,705.280029,,2013-08-18 19:00:00,
2013-08-18 14:42:00,79.0,59.0,-100.00,West,270,2.0,-999.0,51,-99.99,,,-99.99,705.280029,,2013-08-18 19:42:00,
2013-08-18 14:52:00,79.0,59.0,-100.00,West,270,2.0,-999.0,51,-99.99,,,-99.99,705.280029,,2013-08-18 19:52:00,
2013-08-18 15:00:00,79.0,60.0,-100.00,South,180,4.0,-999.0,52,-99.99,,,-99.99,655.400024,,2013-08-18 20:00:00,
2013-08-18 15:42:00,79.0,60.0,-100.00,South,180,4.0,-999.0,52,-99.99,,,-99.99,655.400024,,2013-08-18 20:42:00,
2013-08-18 15:52:00,79.0,60.0,-100.00,South,180,4.0,-999.0,52,-99.99,,,-99.99,655.400024,,2013-08-18 20:52:00,
2013-08-18 16:00:00,78.0,59.0,-100.00,South,180,5.0,-999.0,51,-99.99,,,-99.99,649.599976,,2013-08-18 21:00:00,
2013-08-18 16:42:00,78.0,59.0,-100.00,South,180,5.0,-999.0,51,-99.99,,,-99.99,649.599976,,2013-08-18 21:42:00,
2013-08-18 16:53:00,78.0,59.0,-100.00,South,180,5.0,-999.0,51,-99.99,,,-99.99,649.599976,,2013-08-18 21:53:00,
2013-08-18 17:00:00,77.0,56.0,-100.00,South,180,6.0,-999.0,48,-99.99,,,-99.99,494.160004,,2013-08-18 22:00:00,
2013-08-18 17:42:00,77.0,56.0,-100.00,South,180,6.0,-999.0,48,-99.99,,,-99.99,494.160004,,2013-08-18 22:42:00,
2013-08-18 17:52:00,77.0,56.0,-100.00,South,180,6.0,-999.0,48,-99.99,,,-99.99,494.160004,,2013-08-18 22:52:00,
2013-08-18 18:00:00,75.0,54.0,-100.00,South,180,6.0,-999.0,48,-99.99,,,-99.99,322.480011,,2013-08-18 23:00:00,
2013-08-18 18:42:00,75.0,54.0,-100.00,South,180,6.0,-999.0,48,-99.99,,,-99.99,322.480011,,2013-08-18 23:42:00,
2013-08-18 18:52:00,75.0,54.0,-100.00,South,180,6.0,-999.0,48,-99.99,,,-99.99,322.480011,,2013-08-18 23:52:00,
2013-08-18 20:00:00,69.0,53.0,-100.00,South,180,3.0,-999.0,56,-99.99,,,-99.99,24.360001,,2013-08-19 01:00:00,
2013-08-18 20:42:00,69.0,53.0,-100.00,South,180,3.0,-999.0,56,-99.99,,,-99.99,24.360001,,2013-08-19 01:42:00,
2013-08-18 20:52:00,69.0,53.0,-100.00,South,180,3.0,-999.0,56,-99.99,,,-99.99,24.360001,,2013-08-19 01:52:00,
2013-08-18 21:00:00,67.0,54.0,-100.00,SSW,202,3.0,-999.0,62,-99.99,,,-99.99,0.000000,,2013-08-19 02:00:00,
2013-08-18 21:42:00,67.0,54.0,-100.00,SSW,202,3.0,-999.0,62,-99.99,,,-99.99,0.000000,,2013-08-19 02:42:00,
2013-08-18 21:52:00,67.0,54.0,-100.00,SSW,202,3.0,-999.0,62,-99.99,,,-99.99,0.000000,,2013-08-19 02:52:00,
2013-08-18 22:00:00,66.0,51.0,-100.00,SSW,202,4.0,-999.0,57,-99.99,,,-99.99,0.000000,,2013-08-19 03:00:00,
2013-08-18 22:42:00,66.0,51.0,-100.00,SSW,202,4.0,-999.0,57,-99.99,,,-99.99,0.000000,,2013-08-19 03:42:00,
2013-08-18 22:53:00,66.0,51.0,-100.00,SSW,202,4.0,-999.0,57,-99.99,,,-99.99,0.000000,,2013-08-19 03:53:00,
2013-08-18 23:00:00,66.0,54.0,-100.00,SSW,202,4.0,-999.0,64,-99.99,,,-99.99,0.000000,,2013-08-19 04:00:00,
2013-08-18 23:42:00,66.0,54.0,-100.00,SSW,202,4.0,-999.0,64,-99.99,,,-99.99,0.000000,,2013-08-19 04:42:00,
2013-08-18 23:53:00,66.0,54.0,-100.00,SSW,202,4.0,-999.0,64,-99.99,,,-99.99,0.000000,,2013-08-19 04:53:00,